[[{"header":{"parameterUnit":"m.s-1","parameterCategory":1,"la1":30.2992,"la2":30.254,"lo1":-89.0895,"lo2":-89.0443,"dy":0.0025,"dx":0.0025,"nx":19,"ny":19,"refTime":"2026-05-11T09:00:00:Z","depth":0,"parameterNumber":2,"parameterNumberName":"U-component_of_WINDS"},"data":[0,0,0,-0.1347,-0.1347,-0.1357,-0.1357,-0.1373,-0.1373,0,0,0,0,0,0,0,0,0,0,0,-0.1346,-0.1346,-0.1347,-0.1347,-0.1357,-0.1357,-0.1373,-0.1373,0,0,0,0,0,0,0,0,0,0,0,-0.1346,-0.1346,-0.1346,-0.1347,-0.1357,-0.1357,-0.1373,-0.1364,0,0,0,0,0,0,0,0,0,0,-0.1354,-0.1356,-0.1346,-0.1346,-0.1347,-0.1357,-0.1357,-0.1364,-0.1365,-0.137,0,-0.1375,0,-0.1374,-0.1374,-0.1374,0,0,0,-0.1345,-0.1355,-0.1355,-0.1346,-0.1347,-0.1357,-0.1352,-0.1364,-0.1365,-0.1371,-0.1376,-0.1376,-0.1375,-0.1374,-0.1375,-0.141,-0.1411,0,0,-0.1345,-0.1349,-0.1355,-0.1356,-0.1355,-0.1351,-0.1352,-0.1365,-0.137,-0.1376,-0.1376,-0.1375,-0.1375,-0.1375,-0.141,-0.141,0,0,0,-0.1344,-0.1349,-0.1349,-0.1356,-0.1357,-0.1352,-0.1352,-0.1369,-0.1369,-0.1377,-0.1375,-0.1375,-0.1375,-0.141,-0.141,-0.1427,0,0,0,-0.1344,-0.1349,-0.1349,-0.1352,-0.1357,-0.1363,-0.1357,-0.1368,-0.1369,-0.1375,-0.1375,-0.1375,-0.141,-0.141,-0.1426,-0.1434,0,0,0,-0.1345,-0.1349,-0.1351,-0.1352,-0.1356,-0.1363,-0.1363,-0.1368,-0.1368,-0.1374,-0.1375,-0.1409,-0.141,-0.1425,-0.1433,-0.1445,0,0,0,-0.1347,-0.1365,-0.1351,-0.1371,-0.1356,-0.1373,-0.1363,-0.1375,-0.1382,-0.1375,-0.141,-0.141,-0.1424,-0.1432,-0.1444,-0.1457,-0.1463,0,0,-0.1373,-0.1369,-0.138,-0.1368,-0.1388,-0.1371,-0.1394,-0.1396,-0.1393,-0.1405,-0.1406,-0.1426,-0.1433,-0.1445,-0.1491,-0.1495,0,0,0,-0.139,-0.1398,-0.1403,-0.1409,-0.1411,-0.1414,-0.1412,-0.1413,-0.1423,-0.14,-0.1433,-0.1437,-0.1444,-0.145,-0.1454,-0.146,-0.1413,-0.1413,-0.1413,-0.1434,-0.1428,-0.1446,-0.1442,-0.1448,-0.1446,-0.1451,-0.1451,-0.1444,-0.1452,-0.1456,-0.1484,-0.1491,-0.1494,-0.1501,-0.1461,-0.1461,-0.1461,-0.1461,-0.1472,-0.1483,-0.1471,-0.1486,-0.1479,-0.1491,-0.1489,-0.1484,-0.1494,-0.1481,-0.1487,-0.1474,-0.1499,-0.1505,-0.1463,-0.1462,-0.1462,-0.1462,-0.1462,-0.15,-0.1505,-0.1505,-0.1513,-0.1521,-0.1515,-0.1525,-0.1519,-0.1513,-0.1519,-0.1523,-0.1523,-0.1522,-0.1521,-0.1521,-0.1521,-0.1521,-0.1521,-0.1521,-0.1531,-0.153,-0.154,-0.1542,-0.1546,-0.1549,-0.1546,-0.1549,-0.1551,-0.1546,-0.1546,-0.1538,-0.1502,-0.1494,-0.1523,-0.1523,-0.1522,-0.1522,-0.1522,-0.1574,-0.1563,-0.1577,-0.158,-0.1583,-0.1591,-0.1582,-0.1588,-0.159,-0.1595,-0.1585,-0.156,-0.1556,-0.1552,-0.1546,-0.1586,-0.1586,-0.1586,-0.1586,-0.1599,-0.1595,-0.1609,-0.1614,-0.1618,-0.1612,-0.1628,-0.1626,-0.1622,-0.1622,-0.1615,-0.1605,-0.1602,-0.16,-0.1596,-0.1589,-0.164,-0.164,-0.164,-0.1625,-0.1622,-0.1637,-0.1632,-0.1634,-0.1635,-0.1651,-0.1657,-0.165,-0.1642,-0.1623,-0.1621,-0.1604,-0.1599,-0.1592,-0.1586,-0.1574,0,0]},{"header":{"parameterUnit":"m.s-1","parameterCategory":1,"la1":30.2992,"la2":30.254,"lo1":-89.0895,"lo2":-89.0443,"dy":0.0025,"dx":0.0025,"nx":19,"ny":19,"refTime":"2026-05-11T09:00:00:Z","depth":0,"parameterNumber":3,"parameterNumberName":"V-component_of_WINDS"},"data":[0,0,0,-1.054,-1.054,-1.055,-1.055,-1.0565,-1.0565,0,0,0,0,0,0,0,0,0,0,0,-1.0539,-1.0539,-1.054,-1.054,-1.055,-1.055,-1.0565,-1.0565,0,0,0,0,0,0,0,0,0,0,0,-1.0539,-1.0539,-1.0539,-1.054,-1.055,-1.055,-1.0565,-1.0556,0,0,0,0,0,0,0,0,0,0,-1.0546,-1.0547,-1.0539,-1.0539,-1.054,-1.055,-1.055,-1.0556,-1.0557,-1.0561,0,-1.0566,0,-1.0566,-1.0566,-1.0566,0,0,0,-1.0539,-1.0546,-1.0548,-1.0539,-1.0541,-1.055,-1.0545,-1.0556,-1.0557,-1.0563,-1.0566,-1.0567,-1.0566,-1.0566,-1.0566,-1.0598,-1.0598,0,0,-1.0538,-1.0541,-1.0547,-1.0548,-1.0547,-1.0545,-1.0545,-1.0557,-1.0561,-1.0566,-1.0567,-1.0566,-1.0566,-1.0566,-1.0598,-1.0598,0,0,0,-1.0538,-1.0541,-1.0542,-1.0548,-1.0549,-1.0545,-1.0546,-1.056,-1.0561,-1.0567,-1.0566,-1.0566,-1.0566,-1.0597,-1.0598,-1.0612,0,0,0,-1.0537,-1.0541,-1.0542,-1.0544,-1.0549,-1.0555,-1.0549,-1.056,-1.0561,-1.0566,-1.0566,-1.0567,-1.0597,-1.0598,-1.0611,-1.0618,0,0,0,-1.0538,-1.0541,-1.0543,-1.0544,-1.0548,-1.0555,-1.0556,-1.056,-1.0561,-1.0566,-1.0567,-1.0597,-1.0598,-1.061,-1.0616,-1.0627,0,0,0,-1.0539,-1.0554,-1.0543,-1.0561,-1.0548,-1.0564,-1.0555,-1.0567,-1.0573,-1.0566,-1.0597,-1.0598,-1.061,-1.0615,-1.0626,-1.0637,-1.0641,0,0,-1.056,-1.0557,-1.0567,-1.0557,-1.0576,-1.0562,-1.0582,-1.0585,-1.0582,-1.0593,-1.0593,-1.0611,-1.0616,-1.0627,-1.0667,-1.067,0,0,0,-1.0575,-1.0582,-1.0587,-1.0593,-1.0596,-1.0599,-1.0598,-1.0599,-1.0608,-1.0588,-1.0618,-1.0621,-1.0627,-1.0632,-1.0635,-1.064,-1.06,-1.06,-1.06,-1.061,-1.0606,-1.0623,-1.0621,-1.0627,-1.0627,-1.0632,-1.0633,-1.0627,-1.0634,-1.0637,-1.0662,-1.0667,-1.067,-1.0675,-1.0642,-1.0642,-1.0642,-1.0642,-1.0641,-1.0651,-1.0644,-1.0657,-1.0653,-1.0664,-1.0665,-1.066,-1.067,-1.0659,-1.0664,-1.0652,-1.0674,-1.0679,-1.0643,-1.0643,-1.0643,-1.0643,-1.0643,-1.0663,-1.0667,-1.0669,-1.0679,-1.0686,-1.0684,-1.0693,-1.0689,-1.0686,-1.0691,-1.0694,-1.0694,-1.0693,-1.0693,-1.0693,-1.0693,-1.0693,-1.0693,-1.0693,-1.0686,-1.0687,-1.0696,-1.0701,-1.0705,-1.071,-1.071,-1.0714,-1.0717,-1.0713,-1.0713,-1.0707,-1.0677,-1.0669,-1.0694,-1.0694,-1.0694,-1.0694,-1.0694,-1.0718,-1.0711,-1.0725,-1.0729,-1.0735,-1.0743,-1.0738,-1.0746,-1.0748,-1.0753,-1.0746,-1.0725,-1.0721,-1.0718,-1.0712,-1.0747,-1.0747,-1.0747,-1.0747,-1.0737,-1.0735,-1.0749,-1.0756,-1.0762,-1.076,-1.0775,-1.0776,-1.0775,-1.0776,-1.0771,-1.0762,-1.076,-1.0758,-1.0754,-1.0749,-1.0791,-1.0791,-1.0791,-1.0757,-1.0756,-1.077,-1.077,-1.0774,-1.0778,-1.0793,-1.0801,-1.0799,-1.0793,-1.0777,-1.0776,-1.0762,-1.0758,-1.0751,-1.0746,-1.0735,0,0]}]]